This demonstration page uses our WeatherBlox Daily Observations layout. Learn more.

Left ArrowRight Arrow

44.8408, -93.29828

Hourly Observations for July 7, 2022

Temp ( °F °C ) Dew Point ( °F °C ) Humidity (%) Winds ( mph kmh ) Pressure ( in mb ) Visibility ( mi km ) Precip ( " mm )
12:53 am 00:53 Mostly Cloudy 74 23.3 68 20 82 82 SE 6 9 30.00 1016 10 16 0.00 0.00
1:53 am 01:53 Partly Cloudy 73 22.8 68 20 84 84 ESE 3 6 29.98 1015 10 16 0.00 0.00
2:53 am 02:53 Mostly Cloudy 73 22.8 68 20 84 84 SE 5 7 29.99 1016 10 16 0.00 0.00
3:53 am 03:53 Clear 72 22.2 67 19.4 84 84 ESE 5 7 29.97 1015 10 16 0.00 0.00
4:53 am 04:53 Mostly Cloudy 72 22.2 68 20 87 87 E 5 7 29.96 1015 10 16 0.00 0.00
5:53 am 05:53 Partly Cloudy 71 21.7 68 20 90 90 ESE 7 11 29.97 1015 8 13 0.00 0.00
6:53 am 06:53 Partly Cloudy 72 22.2 68 20 87 87 SSE 3 6 29.98 1015 9 14 0.00 0.00
7:07 am 07:07 Mostly Cloudy 72 22.2 68 20 87 87 SE 5 7 29.97 1015 10 16 0.00 0.00
7:19 am 07:19 Cloudy 73 22.8 68 20 84 84 E 3 6 29.97 1015 10 16 0.00 0.00
7:28 am 07:28 Cloudy 73 22.8 69 20.6 87 87 ESE 5 7 29.97 1015 10 16 0.00 0.00
7:53 am 07:53 Cloudy 73 22.8 69 20.6 87 87 VRB 3 6 29.99 1016 10 16 0.00 0.00
8:20 am 08:20 Cloudy 74 23.3 69 20.6 85 85 ESE 3 6 29.98 1015 10 16 0.00 0.00
8:53 am 08:53 Mostly Cloudy 76 24.4 70 21.1 82 82 Calm 30.00 1016 10 16 0.00 0.00
9:42 am 09:42 Mostly Cloudy 78 25.6 69 20.6 74 74 VRB 3 6 29.97 1015 10 16 0.00 0.00
9:53 am 09:53 Mostly Cloudy 78 25.6 70 21.1 76 76 Calm 29.99 1016 10 16 0.00 0.00
10:12 am 10:12 Mostly Cloudy 78 25.6 70 21.1 76 76 Calm 29.96 1015 10 16 0.00 0.00
10:53 am 10:53 Mostly Cloudy 81 27.2 70 21.1 69 69 ESE 3 6 29.98 1015 10 16 0.00 0.00
11:53 am 11:53 Mostly Cloudy 84 28.9 70 21.1 63 63 SSE 7 11 29.97 1015 10 16 0.00 0.00
12:53 pm 12:53 Mostly Cloudy 85 29.4 68 20 57 57 VRB 3 6 29.96 1015 10 16 0.00 0.00
1:53 pm 13:53 Mostly Cloudy 84 28.9 69 20.6 61 61 NE 10 17 29.95 1014 10 16 0.00 0.00
2:49 pm 14:49 Mostly Cloudy with Thunderstorms 82 28 72 22 70 70 E 7 11 29.91 1013 9 14 0.01 0.25
2:53 pm 14:53 Mostly Cloudy with Thunderstorms 82 27.8 71 21.7 69 69 E 8 13 29.95 1014 9 14 0.01 0.25
3:53 pm 15:53 Mostly Cloudy with Thunderstorms 82 27.8 71 21.7 69 69 S 10 17 29.94 1014 10 16 0.00 0.00
4:53 pm 16:53 Mostly Cloudy 79 26.1 71 21.7 77 77 S 8 13 29.95 1014 9 14 0.00 0.00
5:53 pm 17:53 Mostly Cloudy 80 26.7 70 21.1 71 71 SE 5 7 29.94 1014 10 16 0.00 0.00
6:53 pm 18:53 Mostly Cloudy 81 27.2 70 21.1 69 69 SSE 6 9 29.94 1014 10 16 0.00 0.00
7:53 pm 19:53 Cloudy 81 27.2 69 20.6 67 67 E 6 9 29.93 1014 10 16 0.00 0.00
8:53 pm 20:53 Cloudy 80 26.7 69 20.6 69 69 E 3 6 29.94 1014 10 16 0.00 0.00
9:53 pm 21:53 Mostly Cloudy with Light Rain 79 26.1 70 21.1 74 74 Calm 29.97 1015 10 16 0.00 0.00
10:53 pm 22:53 Partly Cloudy 77 25 72 22.2 85 85 VRB 5 7 29.97 1015 10 16 0.00 0.00
11:53 pm 23:53 Cloudy with Light Rain 76 24.4 71 21.7 85 85 SW 6 9 29.98 1015 10 16 0.00 0.00

Powered by AerisWeather